Lihue, HI

2:26 PM HST on March 23, 2017 (GMT -1000)
Lihue

Weather History for PHLI - July, 2014

Change the Weather History Date:

Friday, July 25, 2014

  Actual Average Record
Temperature  
Mean Temperature 79 °F 79 °F  
Max Temperature 84 °F 84 °F 88 °F (1982)
Min Temperature 74 °F 74 °F 67 °F (1962)
Degree Days  
Heating Degree Days 0 0  
Month to date heating degree days 0 0  
Since 1 June heating degree days 0 0  
Since 1 July heating degree days 0 0  
Cooling Degree Days 14 14  
Month to date cooling degree days 367 350  
Year to date cooling degree days 1968 1983  
Since 1 June cooling degree days 747 744  
Growing Degree Days 28 (Base 50)    
Moisture  
Dew Point 70 °F    
Average Humidity 78    
Maximum Humidity 94    
Minimum Humidity 61    
Precipitation  
Precipitation T in 0.07 in 1.34 in (1986)
Month to date precipitation 1.44 1.46  
Year to date precipitation 20.36 18.91  
Snow  
Snow 0.00 in - - ()
Month to date snowfall 0.0  
Since 1 June snowfall 0.0  
Since 1 July snowfall 0.0  
Snow Depth 0.00 in    
Sea Level Pressure  
Sea Level Pressure 30.00 in    
Wind  
Wind Speed 13 mph (NE)    
Max Wind Speed 18 mph    
Max Gust Speed 22 mph    
Visibility 10 miles    
Events Rain    
T = Trace of Precipitation, MM = Missing Value Source: NWS Daily Summary

Daily Weather History Graph

Daily Weather History Graph

Search for Another Location

Airport or City:

Trip Planner

Search our weather history database for the weather conditions in past years. The results will help you decide how hot, cold, wet, or windy it might be!

Date:

Astronomy

Jul. 25, 2014 Rise Set
Actual Time 6:07 AM HST 7:20 PM HST
Civil Twilight 5:42 AM HST 7:44 PM HST
Nautical Twilight 5:14 AM HST 8:13 PM HST
Astronomical Twilight 4:44 AM HST 8:42 PM HST
Moon 5:11 AM HST (7/25) 6:31 PM HST (7/25)
Length of Visible Light 14h 01m
Length of Day
13h 13m
Waning Crescent, 1% of the Moon is Illuminated
Jul 25
Waning Crescent
Jul 26
New
Aug 3
First Quarter
Aug 10
Full
Aug 17
Last Quarter

Hourly Weather History & Observations

Time (HST) Temp. Heat Index Dew Point Humidity Pressure Visibility Wind Dir Wind Speed Gust Speed Precip Events Conditions
12:53 AM 75.9 °F - 71.1 °F 85% 30.04 in 10.0 mi NE 11.5 mph - N/A   Scattered Clouds
1:53 AM 75.9 °F - 70.0 °F 82% 30.02 in 10.0 mi NE 13.8 mph - N/A   Scattered Clouds
2:49 AM 75.2 °F - 73.4 °F 94% 30.02 in 10.0 mi NNE 12.7 mph - N/A   Mostly Cloudy
2:53 AM 75.9 °F - 72.0 °F 87% 30.01 in 10.0 mi NNE 13.8 mph - N/A   Mostly Cloudy
3:33 AM 75.2 °F - 71.6 °F 89% 30.01 in 10.0 mi North 5.8 mph - 0.00 in Rain Light Rain
3:53 AM 75.9 °F - 71.1 °F 85% 30.00 in 10.0 mi NE 13.8 mph - 0.00 in   Mostly Cloudy
4:53 AM 75.9 °F - 70.0 °F 82% 29.99 in 10.0 mi NE 10.4 mph - N/A   Scattered Clouds
5:53 AM 73.9 °F - 70.0 °F 87% 30.00 in 10.0 mi NNE 11.5 mph - 0.00 in Rain Light Rain
6:53 AM 77.0 °F - 72.0 °F 84% 30.01 in 10.0 mi NE 15.0 mph - N/A   Overcast
7:53 AM 79.0 °F - 71.1 °F 77% 30.03 in 10.0 mi NE 11.5 mph - N/A   Scattered Clouds
8:53 AM 81.0 °F 84.4 °F 70.0 °F 69% 30.04 in 10.0 mi ENE 11.5 mph - N/A   Mostly Cloudy
9:53 AM 82.0 °F 85.9 °F 70.0 °F 67% 30.04 in 10.0 mi ENE 12.7 mph - N/A   Mostly Cloudy
10:53 AM 82.9 °F 87.5 °F 71.1 °F 67% 30.03 in 10.0 mi ENE 11.5 mph - N/A   Partly Cloudy
11:53 AM 82.9 °F 86.5 °F 69.1 °F 63% 30.02 in 10.0 mi NE 12.7 mph - N/A   Scattered Clouds
12:53 PM 84.0 °F 87.8 °F 69.1 °F 61% 30.01 in 10.0 mi ENE 13.8 mph - 0.00 in   Partly Cloudy
1:53 PM 82.9 °F 87.0 °F 70.0 °F 65% 30.01 in 10.0 mi NE 12.7 mph - N/A   Overcast
2:53 PM 82.9 °F 85.8 °F 68.0 °F 60% 29.99 in 10.0 mi NE 12.7 mph - N/A   Clear
3:53 PM 82.9 °F 85.8 °F 68.0 °F 60% 29.97 in 10.0 mi NE 12.7 mph - N/A   Mostly Cloudy
4:04 PM 82.4 °F 85.4 °F 68.0 °F 62% 29.98 in 10.0 mi NE 11.5 mph - N/A   Mostly Cloudy
4:11 PM 82.4 °F 85.4 °F 68.0 °F 62% 29.98 in 10.0 mi NE 11.5 mph - N/A   Scattered Clouds
4:53 PM 82.0 °F 85.9 °F 70.0 °F 67% 29.96 in 10.0 mi NNE 12.7 mph - N/A   Mostly Cloudy
5:53 PM 81.0 °F 84.1 °F 69.1 °F 67% 29.96 in 10.0 mi NE 13.8 mph - N/A   Mostly Cloudy
6:53 PM 79.0 °F - 69.1 °F 72% 29.97 in 10.0 mi NE 12.7 mph - N/A   Mostly Cloudy
7:14 PM 78.8 °F - 68.0 °F 69% 29.98 in 10.0 mi NE 13.8 mph - N/A   Overcast
7:53 PM 78.1 °F - 70.0 °F 76% 29.99 in 10.0 mi NNE 13.8 mph - N/A   Mostly Cloudy
8:53 PM 78.1 °F - 68.0 °F 71% 29.99 in 10.0 mi NE 12.7 mph - N/A   Overcast
9:53 PM 78.1 °F - 69.1 °F 74% 30.01 in 10.0 mi NE 12.7 mph - N/A   Overcast
10:53 PM 78.1 °F - 68.0 °F 71% 30.01 in 10.0 mi NE 13.8 mph - N/A   Overcast
11:53 PM 78.1 °F - 68.0 °F 71% 30.01 in 10.0 mi ENE 12.7 mph - N/A   Mostly Cloudy